Precipitable_Water
0.51 0.49 0.49 0.49 0.47 0.45 0.45 0.45 0.46 0.46 0.47 0.49 0.50 0.51 0.52 0.50 0.48 0.47 0.47 0.48 0.49 0.49 0.50 0.48 0.50 0.56 0.58 0.59 0.59 0.55 0.51 0.36 0.30 0.26 0.24 0.22 0.24 0.29 0.39 0.44 0.48 0.53 0.60 0.59 0.59 0.57 0.54 0.55 0.53 0.62 0.62 0.67 0.75 0.86 1.03 1.03 1.02 0.93 0.75 0.69 0.62 0.66 0.63 0.69 0.69 0.74 0.77 0.76 0.87 0.92 0.97 0.92 0.86 0.98 0.96 1.04 0.86 0.82 0.83 0.85 0.94 1.05 1.02 1.10 1.16 1.27 1.32 1.36
0.53 0.51 0.49 0.49 0.48 0.47 0.45 0.44 0.44 0.45 0.45 0.47 0.48 0.49 0.50 0.51 0.49 0.46 0.45 0.46 0.48 0.49 0.50 0.49 0.49 0.55 0.59 0.59 0.58 0.57 0.48 0.35 0.25 0.25 0.21 0.22 0.25 0.29 0.34 0.42 0.47 0.52 0.58 0.53 0.51 0.51 0.51 0.51 0.53 0.59 0.58 0.57 0.81 0.83 0.97 0.89 0.99 0.81 0.74 0.69 0.62 0.67 0.70 0.78 0.78 0.80 0.78 0.78 0.88 0.94 1.01 0.95 0.90 0.95 0.92 0.70 0.68 0.69 0.69 0.78 0.87 0.88 0.97 1.14 1.16 1.22 1.27 1.31
0.56 0.54 0.52 0.49 0.48 0.48 0.46 0.45 0.44 0.43 0.43 0.44 0.47 0.48 0.48 0.49 0.49 0.47 0.46 0.46 0.47 0.48 0.49 0.49 0.48 0.54 0.57 0.61 0.58 0.57 0.46 0.29 0.25 0.16 0.16 0.41 0.31 0.29 0.33 0.40 0.48 0.54 0.51 0.49 0.52 0.52 0.52 0.52 0.52 0.51 0.54 0.56 0.74 0.75 0.86 0.81 0.86 0.85 0.76 0.67 0.67 0.73 0.75 0.79 0.81 0.79 0.82 0.87 0.87 0.91 0.97 0.98 1.02 0.95 0.90 0.65 0.62 0.69 0.61 0.61 0.73 0.76 0.81 0.94 1.06 1.17 1.22 1.26
0.61 0.57 0.54 0.51 0.49 0.48 0.47 0.47 0.45 0.43 0.43 0.43 0.44 0.46 0.48 0.48 0.48 0.48 0.46 0.44 0.45 0.46 0.48 0.49 0.49 0.55 0.58 0.60 0.60 0.56 0.42 0.25 0.14 0.14 0.24 0.40 0.38 0.38 0.39 0.44 0.52 0.57 0.52 0.51 0.53 0.55 0.57 0.57 0.53 0.50 0.49 0.54 0.69 0.76 0.73 0.78 0.73 0.81 0.75 0.66 0.69 0.76 0.71 0.77 0.81 0.83 0.86 0.90 0.88 0.90 0.96 0.97 1.06 0.99 0.83 0.67 0.60 0.62 0.63 0.72 0.66 0.65 0.77 0.88 1.02 1.10 1.18 1.20
0.63 0.61 0.57 0.53 0.51 0.49 0.48 0.48 0.47 0.44 0.43 0.41 0.42 0.44 0.46 0.47 0.47 0.47 0.46 0.45 0.45 0.46 0.47 0.48 0.49 0.55 0.58 0.61 0.59 0.56 0.33 0.14 0.15 0.25 0.38 0.41 0.39 0.38 0.41 0.44 0.53 0.56 0.48 0.51 0.55 0.57 0.56 0.53 0.51 0.50 0.48 0.53 0.68 0.70 0.72 0.74 0.77 0.72 0.65 0.66 0.67 0.68 0.68 0.78 0.81 0.84 0.87 0.94 0.89 0.89 0.86 0.89 1.12 1.03 0.88 0.79 0.55 0.47 0.56 0.68 0.79 0.85 0.88 0.89 0.95 1.06 1.15 1.14
0.61 0.62 0.61 0.58 0.53 0.51 0.49 0.48 0.47 0.46 0.44 0.42 0.42 0.43 0.44 0.44 0.46 0.46 0.46 0.46 0.45 0.45 0.46 0.48 0.50 0.54 0.59 0.60 0.56 0.47 0.28 0.09 0.21 0.26 0.41 0.39 0.37 0.39 0.37 0.40 0.53 0.53 0.47 0.47 0.49 0.53 0.52 0.50 0.47 0.44 0.46 0.55 0.63 0.63 0.68 0.71 0.73 0.56 0.60 0.60 0.63 0.64 0.66 0.78 0.82 0.83 0.90 0.88 0.80 0.81 0.88 1.00 0.94 0.90 1.00 0.87 0.71 0.65 0.72 0.76 0.82 0.88 0.94 1.01 1.08 1.09 1.07 1.10
0.57 0.59 0.60 0.60 0.58 0.54 0.51 0.49 0.48 0.47 0.46 0.43 0.42 0.40 0.41 0.43 0.44 0.45 0.46 0.46 0.46 0.46 0.46 0.47 0.49 0.55 0.58 0.59 0.51 0.40 0.25 0.21 0.24 0.24 0.29 0.45 0.48 0.43 0.43 0.44 0.52 0.46 0.42 0.41 0.47 0.48 0.50 0.48 0.47 0.44 0.48 0.56 0.65 0.66 0.68 0.66 0.65 0.57 0.51 0.54 0.56 0.64 0.64 0.77 0.81 0.84 0.84 0.80 0.74 0.84 0.97 0.88 0.90 0.79 0.97 0.91 0.90 0.86 0.83 0.85 0.87 0.95 1.02 1.05 1.01 1.06 1.05 1.07
0.55 0.55 0.56 0.57 0.58 0.57 0.55 0.52 0.49 0.47 0.46 0.45 0.42 0.41 0.41 0.42 0.42 0.44 0.46 0.47 0.47 0.48 0.47 0.47 0.49 0.54 0.60 0.47 0.33 0.25 0.24 0.19 0.23 0.26 0.35 0.45 0.50 0.49 0.48 0.43 0.40 0.40 0.37 0.39 0.44 0.46 0.49 0.47 0.45 0.51 0.48 0.51 0.63 0.64 0.66 0.60 0.55 0.51 0.50 0.52 0.55 0.62 0.66 0.76 0.81 0.81 0.80 0.80 0.86 0.89 0.83 0.82 0.85 0.84 0.91 0.90 0.95 0.93 0.87 0.88 0.89 0.94 0.98 1.01 0.99 1.01 1.04 1.07
0.54 0.53 0.52 0.53 0.54 0.56 0.56 0.53 0.51 0.49 0.47 0.45 0.44 0.42 0.41 0.40 0.41 0.41 0.44 0.47 0.48 0.48 0.48 0.48 0.49 0.56 0.62 0.47 0.30 0.22 0.17 0.27 0.28 0.39 0.44 0.42 0.44 0.46 0.43 0.27 0.37 0.34 0.35 0.41 0.45 0.45 0.46 0.45 0.47 0.49 0.45 0.53 0.65 0.62 0.62 0.54 0.46 0.50 0.49 0.56 0.59 0.61 0.66 0.75 0.80 0.78 0.76 0.81 0.86 0.82 0.78 0.86 0.89 0.97 0.84 0.94 1.03 1.03 0.96 0.87 0.88 0.90 0.91 0.93 0.96 0.99 1.02 1.05
0.53 0.53 0.52 0.50 0.50 0.52 0.52 0.53 0.52 0.49 0.47 0.46 0.44 0.43 0.42 0.40 0.39 0.40 0.42 0.45 0.47 0.48 0.48 0.49 0.53 0.55 0.48 0.35 0.29 0.18 0.25 0.27 0.38 0.44 0.46 0.41 0.43 0.42 0.32 0.31 0.30 0.30 0.32 0.39 0.43 0.44 0.43 0.45 0.47 0.53 0.56 0.57 0.64 0.59 0.58 0.52 0.48 0.50 0.57 0.63 0.61 0.65 0.69 0.77 0.75 0.78 0.78 0.79 0.85 0.75 0.76 0.80 0.90 0.84 0.67 0.95 1.06 1.09 0.98 0.86 0.89 0.84 0.83 0.91 0.95 1.01 1.04 1.04
0.53 0.53 0.52 0.50 0.49 0.49 0.49 0.49 0.49 0.49 0.48 0.46 0.45 0.43 0.42 0.41 0.41 0.42 0.43 0.44 0.46 0.47 0.48 0.50 0.55 0.52 0.36 0.39 0.24 0.17 0.34 0.30 0.42 0.42 0.41 0.39 0.40 0.34 0.27 0.28 0.28 0.26 0.32 0.38 0.40 0.44 0.44 0.49 0.55 0.57 0.54 0.53 0.58 0.55 0.53 0.49 0.53 0.56 0.66 0.67 0.68 0.71 0.74 0.78 0.79 0.77 0.79 0.79 0.87 0.85 0.80 0.88 0.87 0.80 0.69 0.86 1.05 1.09 0.93 0.87 0.85 0.83 0.82 0.86 0.93 0.97 1.04 1.06
0.53 0.52 0.52 0.51 0.50 0.49 0.47 0.47 0.46 0.46 0.48 0.47 0.45 0.43 0.41 0.42 0.43 0.44 0.45 0.46 0.46 0.47 0.49 0.53 0.55 0.51 0.43 0.30 0.24 0.20 0.37 0.34 0.41 0.39 0.38 0.35 0.34 0.35 0.35 0.30 0.28 0.27 0.29 0.32 0.40 0.42 0.45 0.55 0.54 0.51 0.47 0.59 0.50 0.52 0.48 0.52 0.57 0.65 0.64 0.59 0.68 0.72 0.70 0.76 0.72 0.77 0.79 0.78 0.90 0.94 0.81 0.74 0.77 0.66 0.79 0.93 1.04 1.06 0.97 0.90 0.88 0.85 0.83 0.85 0.90 0.94 0.98 1.01
0.52 0.51 0.51 0.50 0.50 0.49 0.47 0.46 0.45 0.44 0.44 0.46 0.46 0.43 0.42 0.43 0.44 0.45 0.47 0.48 0.47 0.50 0.55 0.57 0.58 0.53 0.36 0.21 0.23 0.35 0.41 0.42 0.40 0.41 0.39 0.37 0.41 0.42 0.38 0.36 0.31 0.30 0.33 0.32 0.35 0.38 0.41 0.44 0.49 0.46 0.52 0.53 0.52 0.45 0.47 0.55 0.63 0.70 0.68 0.66 0.65 0.67 0.65 0.77 0.84 0.85 0.80 0.84 0.92 0.90 0.53 0.58 0.68 0.81 0.85 0.98 1.00 1.02 0.97 0.92 0.92 0.90 0.87 0.86 0.87 0.89 0.93 1.00
0.52 0.51 0.50 0.50 0.49 0.49 0.48 0.47 0.44 0.43 0.42 0.43 0.43 0.42 0.42 0.44 0.45 0.47 0.53 0.53 0.55 0.57 0.59 0.60 0.60 0.50 0.35 0.21 0.30 0.41 0.45 0.44 0.41 0.36 0.38 0.38 0.38 0.38 0.36 0.37 0.36 0.35 0.37 0.34 0.36 0.38 0.39 0.43 0.42 0.41 0.53 0.52 0.48 0.55 0.46 0.54 0.69 0.59 0.67 0.71 0.59 0.56 0.57 0.77 0.79 0.84 0.75 0.92 0.94 0.87 0.50 0.56 0.69 0.82 0.90 0.99 1.03 0.95 0.90 0.93 0.92 0.90 0.88 0.87 0.87 0.86 0.88 0.95
0.51 0.50 0.49 0.49 0.48 0.48 0.48 0.48 0.45 0.43 0.42 0.40 0.39 0.39 0.43 0.44 0.48 0.56 0.61 0.60 0.59 0.60 0.61 0.65 0.62 0.44 0.29 0.26 0.43 0.51 0.54 0.57 0.36 0.31 0.43 0.39 0.35 0.36 0.33 0.33 0.31 0.33 0.36 0.38 0.35 0.36 0.42 0.44 0.42 0.39 0.42 0.54 0.53 0.46 0.47 0.49 0.61 0.65 0.55 0.52 0.62 0.54 0.61 0.74 0.84 0.82 0.67 0.88 0.94 0.80 0.53 0.56 0.69 0.82 0.91 0.99 1.01 0.99 0.91 0.94 0.93 0.89 0.87 0.86 0.86 0.86 0.88 0.91
0.51 0.50 0.48 0.48 0.47 0.46 0.47 0.47 0.45 0.44 0.42 0.40 0.37 0.37 0.41 0.45 0.56 0.66 0.66 0.62 0.60 0.60 0.64 0.49 0.51 0.45 0.32 0.21 0.33 0.48 0.41 0.30 0.32 0.44 0.50 0.45 0.41 0.34 0.37 0.30 0.31 0.30 0.32 0.33 0.37 0.36 0.38 0.39 0.35 0.37 0.42 0.50 0.47 0.41 0.40 0.47 0.53 0.61 0.51 0.51 0.54 0.58 0.59 0.65 0.77 0.87 0.87 0.82 0.88 0.76 0.57 0.65 0.71 0.89 0.97 1.03 0.99 0.96 0.93 0.94 0.94 0.90 0.86 0.85 0.85 0.85 0.88 0.91
0.53 0.51 0.49 0.48 0.46 0.45 0.46 0.45 0.45 0.44 0.42 0.39 0.38 0.37 0.38 0.51 0.64 0.69 0.70 0.67 0.64 0.63 0.59 0.41 0.49 0.52 0.22 0.39 0.50 0.35 0.33 0.38 0.43 0.40 0.42 0.48 0.50 0.44 0.38 0.31 0.25 0.25 0.27 0.30 0.31 0.32 0.37 0.35 0.39 0.39 0.43 0.44 0.45 0.40 0.33 0.40 0.44 0.50 0.54 0.53 0.59 0.54 0.59 0.55 0.75 0.85 0.87 0.83 0.71 0.79 0.65 0.68 0.77 0.88 0.97 1.03 0.99 0.93 0.89 0.92 0.95 0.92 0.86 0.85 0.85 0.85 0.85 0.87
0.54 0.52 0.51 0.49 0.46 0.46 0.45 0.44 0.43 0.42 0.41 0.39 0.39 0.35 0.41 0.59 0.68 0.71 0.69 0.69 0.68 0.60 0.56 0.59 0.51 0.34 0.22 0.32 0.26 0.32 0.41 0.38 0.37 0.39 0.39 0.48 0.51 0.47 0.38 0.31 0.28 0.23 0.21 0.21 0.27 0.26 0.34 0.31 0.36 0.32 0.38 0.41 0.41 0.35 0.28 0.30 0.39 0.43 0.46 0.52 0.56 0.59 0.61 0.55 0.59 0.72 0.82 0.84 0.74 0.73 0.69 0.71 0.79 0.90 0.96 1.01 1.04 0.92 0.86 0.87 0.92 0.90 0.86 0.86 0.84 0.84 0.84 0.85
0.52 0.52 0.51 0.50 0.48 0.46 0.46 0.45 0.42 0.41 0.40 0.38 0.39 0.38 0.57 0.63 0.66 0.66 0.56 0.59 0.43 0.32 0.22 0.33 0.32 0.17 0.11 0.25 0.36 0.35 0.38 0.43 0.42 0.39 0.37 0.42 0.48 0.49 0.42 0.37 0.31 0.19 0.14 0.15 0.20 0.25 0.31 0.30 0.33 0.31 0.31 0.36 0.36 0.34 0.30 0.38 0.46 0.46 0.47 0.52 0.57 0.53 0.57 0.57 0.63 0.75 0.75 0.72 0.69 0.69 0.61 0.67 0.76 0.84 0.93 1.00 1.05 0.95 0.88 0.91 0.91 0.92 0.88 0.84 0.84 0.84 0.84 0.84
0.49 0.49 0.50 0.49 0.48 0.47 0.46 0.45 0.43 0.41 0.40 0.37 0.30 0.27 0.36 0.28 0.30 0.29 0.48 0.43 0.32 0.28 0.25 0.24 0.29 0.26 0.24 0.23 0.29 0.42 0.47 0.48 0.34 0.37 0.43 0.47 0.45 0.43 0.39 0.35 0.28 0.18 0.13 0.12 0.19 0.23 0.29 0.24 0.24 0.26 0.30 0.36 0.38 0.36 0.34 0.37 0.47 0.56 0.55 0.54 0.56 0.56 0.58 0.64 0.66 0.73 0.80 0.71 0.65 0.67 0.68 0.68 0.73 0.79 0.86 0.94 1.00 0.98 0.92 0.85 0.84 0.86 0.85 0.82 0.82 0.82 0.84 0.85
0.48 0.47 0.48 0.48 0.47 0.46 0.46 0.45 0.43 0.41 0.40 0.41 0.31 0.23 0.19 0.25 0.22 0.21 0.27 0.28 0.31 0.33 0.29 0.27 0.26 0.24 0.20 0.24 0.27 0.31 0.32 0.35 0.39 0.37 0.41 0.51 0.45 0.40 0.32 0.32 0.24 0.13 0.13 0.15 0.17 0.24 0.27 0.22 0.24 0.28 0.33 0.37 0.38 0.38 0.35 0.35 0.41 0.46 0.53 0.53 0.52 0.54 0.52 0.64 0.65 0.73 0.80 0.66 0.63 0.71 0.68 0.67 0.72 0.80 0.87 0.95 0.95 0.90 0.92 0.88 0.84 0.82 0.82 0.84 0.82 0.82 0.84 0.86
0.47 0.46 0.47 0.46 0.47 0.45 0.44 0.43 0.42 0.42 0.45 0.39 0.26 0.22 0.27 0.32 0.36 0.37 0.32 0.19 0.28 0.33 0.31 0.27 0.30 0.25 0.28 0.27 0.28 0.35 0.38 0.31 0.31 0.34 0.44 0.46 0.39 0.32 0.30 0.28 0.22 0.12 0.13 0.16 0.18 0.19 0.20 0.20 0.24 0.30 0.35 0.38 0.39 0.38 0.36 0.35 0.37 0.42 0.46 0.48 0.48 0.50 0.56 0.63 0.65 0.71 0.78 0.70 0.63 0.69 0.64 0.67 0.74 0.81 0.89 0.89 0.87 0.88 0.94 0.94 0.87 0.87 0.83 0.81 0.82 0.83 0.85 0.88
0.47 0.46 0.46 0.46 0.46 0.44 0.42 0.40 0.41 0.43 0.43 0.29 0.22 0.26 0.28 0.38 0.38 0.37 0.33 0.27 0.21 0.30 0.29 0.27 0.23 0.22 0.21 0.27 0.31 0.37 0.27 0.26 0.25 0.31 0.38 0.44 0.37 0.33 0.30 0.24 0.22 0.16 0.13 0.15 0.14 0.16 0.16 0.20 0.26 0.31 0.33 0.34 0.36 0.37 0.36 0.35 0.35 0.38 0.43 0.42 0.40 0.49 0.50 0.47 0.58 0.68 0.74 0.69 0.63 0.67 0.64 0.68 0.77 0.85 0.87 0.91 0.90 0.92 0.99 1.02 1.01 0.99 0.90 0.85 0.81 0.81 0.83 0.85
0.46 0.46 0.45 0.46 0.46 0.43 0.41 0.38 0.41 0.44 0.34 0.29 0.27 0.29 0.38 0.38 0.36 0.36 0.31 0.23 0.18 0.23 0.27 0.27 0.25 0.23 0.22 0.19 0.29 0.28 0.23 0.25 0.30 0.28 0.41 0.40 0.33 0.37 0.30 0.27 0.21 0.18 0.11 0.13 0.15 0.15 0.16 0.22 0.28 0.30 0.32 0.32 0.33 0.36 0.34 0.32 0.30 0.36 0.41 0.42 0.42 0.45 0.50 0.53 0.56 0.65 0.71 0.73 0.72 0.69 0.63 0.62 0.69 0.70 0.77 0.89 0.97 0.95 0.97 1.00 1.01 1.03 1.02 0.98 0.96 0.94 0.93 0.88
0.46 0.45 0.46 0.46 0.44 0.46 0.37 0.37 0.34 0.31 0.32 0.28 0.29 0.38 0.39 0.35 0.34 0.38 0.30 0.26 0.25 0.22 0.35 0.31 0.34 0.29 0.30 0.38 0.34 0.21 0.22 0.26 0.28 0.32 0.39 0.38 0.36 0.33 0.29 0.30 0.24 0.17 0.14 0.13 0.15 0.16 0.18 0.23 0.28 0.28 0.30 0.31 0.33 0.34 0.33 0.31 0.28 0.33 0.40 0.43 0.44 0.45 0.49 0.55 0.60 0.61 0.59 0.58 0.67 0.63 0.48 0.47 0.61 0.65 0.69 0.80 0.86 0.85 0.93 0.92 0.92 0.97 1.00 1.03 1.02 0.99 0.97 0.97
0.45 0.45 0.46 0.46 0.45 0.44 0.38 0.25 0.27 0.31 0.26 0.23 0.32 0.39 0.35 0.33 0.35 0.39 0.34 0.23 0.15 0.19 0.29 0.21 0.38 0.29 0.38 0.32 0.31 0.26 0.27 0.19 0.28 0.33 0.40 0.41 0.43 0.35 0.29 0.25 0.25 0.17 0.16 0.14 0.14 0.16 0.17 0.23 0.27 0.27 0.28 0.29 0.31 0.32 0.34 0.32 0.28 0.29 0.34 0.45 0.46 0.45 0.48 0.53 0.56 0.55 0.49 0.45 0.59 0.69 0.45 0.38 0.56 0.55 0.63 0.74 0.78 0.78 0.87 0.86 0.89 0.95 0.99 1.01 1.02 1.03 1.01 0.98
0.45 0.45 0.46 0.46 0.45 0.46 0.27 0.19 0.32 0.31 0.19 0.26 0.35 0.33 0.33 0.32 0.40 0.38 0.28 0.21 0.14 0.25 0.14 0.31 0.36 0.39 0.41 0.39 0.34 0.29 0.10 0.11 0.27 0.38 0.40 0.46 0.38 0.41 0.29 0.22 0.23 0.23 0.22 0.18 0.14 0.12 0.17 0.20 0.25 0.28 0.28 0.28 0.29 0.29 0.32 0.31 0.28 0.27 0.38 0.43 0.45 0.43 0.44 0.47 0.52 0.52 0.49 0.58 0.65 0.67 0.60 0.44 0.41 0.49 0.64 0.73 0.73 0.75 0.78 0.81 0.86 0.90 0.94 0.97 1.02 1.03 1.02 1.02
0.45 0.44 0.45 0.46 0.45 0.45 0.35 0.35 0.29 0.22 0.21 0.24 0.33 0.32 0.31 0.33 0.41 0.45 0.28 0.12 0.09 0.24 0.24 0.26 0.32 0.47 0.44 0.45 0.43 0.22 0.17 0.28 0.17 0.28 0.41 0.46 0.42 0.37 0.29 0.24 0.20 0.19 0.20 0.17 0.09 0.14 0.16 0.17 0.22 0.25 0.27 0.27 0.28 0.30 0.33 0.33 0.28 0.28 0.38 0.44 0.43 0.43 0.42 0.45 0.45 0.45 0.49 0.50 0.46 0.56 0.62 0.48 0.40 0.46 0.62 0.68 0.62 0.67 0.68 0.71 0.77 0.83 0.89 0.93 0.99 1.02 1.04 1.04
0.45 0.44 0.44 0.46 0.45 0.44 0.44 0.36 0.30 0.22 0.26 0.33 0.34 0.33 0.32 0.38 0.36 0.27 0.21 0.11 0.20 0.20 0.39 0.25 0.41 0.37 0.37 0.43 0.37 0.31 0.23 0.27 0.22 0.31 0.40 0.44 0.46 0.36 0.25 0.24 0.24 0.21 0.20 0.18 0.12 0.15 0.17 0.18 0.21 0.26 0.27 0.26 0.30 0.33 0.34 0.34 0.28 0.31 0.39 0.43 0.41 0.41 0.42 0.44 0.41 0.40 0.43 0.40 0.36 0.45 0.54 0.41 0.37 0.45 0.49 0.60 0.58 0.57 0.59 0.64 0.70 0.77 0.83 0.89 0.93 1.00 1.05 1.07
0.44 0.42 0.44 0.46 0.43 0.39 0.38 0.40 0.28 0.26 0.31 0.35 0.35 0.32 0.34 0.36 0.32 0.22 0.17 0.10 0.32 0.19 0.26 0.26 0.22 0.23 0.32 0.31 0.33 0.33 0.23 0.24 0.27 0.37 0.40 0.35 0.39 0.37 0.34 0.32 0.23 0.21 0.18 0.18 0.16 0.16 0.20 0.23 0.25 0.25 0.26 0.29 0.32 0.34 0.35 0.34 0.33 0.34 0.37 0.38 0.37 0.38 0.38 0.44 0.43 0.40 0.39 0.31 0.31 0.38 0.46 0.42 0.31 0.37 0.42 0.43 0.46 0.52 0.56 0.59 0.67 0.75 0.82 0.88 0.92 0.95 1.00 1.04
0.43 0.41 0.41 0.46 0.35 0.38 0.37 0.24 0.21 0.28 0.33 0.34 0.32 0.29 0.31 0.28 0.20 0.17 0.12 0.15 0.26 0.22 0.27 0.26 0.24 0.26 0.24 0.25 0.26 0.31 0.28 0.25 0.27 0.34 0.34 0.38 0.37 0.38 0.31 0.24 0.25 0.21 0.18 0.17 0.16 0.16 0.18 0.22 0.23 0.27 0.30 0.32 0.34 0.32 0.35 0.35 0.34 0.32 0.33 0.34 0.33 0.34 0.39 0.37 0.37 0.41 0.31 0.27 0.31 0.35 0.39 0.44 0.30 0.31 0.43 0.47 0.48 0.52 0.55 0.54 0.55 0.62 0.70 0.77 0.83 0.90 0.96 1.01
0.42 0.40 0.40 0.39 0.40 0.46 0.27 0.18 0.23 0.32 0.31 0.31 0.26 0.23 0.25 0.15 0.21 0.14 0.13 0.34 0.15 0.22 0.22 0.23 0.26 0.25 0.24 0.27 0.26 0.26 0.25 0.24 0.28 0.32 0.33 0.32 0.30 0.30 0.27 0.20 0.19 0.14 0.14 0.15 0.14 0.18 0.16 0.18 0.23 0.24 0.32 0.30 0.31 0.30 0.30 0.32 0.32 0.30 0.31 0.32 0.28 0.26 0.29 0.25 0.31 0.26 0.28 0.25 0.30 0.35 0.42 0.42 0.37 0.36 0.40 0.47 0.50 0.55 0.59 0.57 0.53 0.57 0.65 0.72 0.79 0.85 0.92 0.99
0.43 0.39 0.39 0.36 0.40 0.35 0.33 0.30 0.33 0.33 0.32 0.27 0.22 0.26 0.19 0.14 0.10 0.16 0.17 0.21 0.16 0.24 0.25 0.30 0.28 0.27 0.26 0.26 0.23 0.25 0.27 0.22 0.27 0.30 0.35 0.37 0.33 0.31 0.31 0.24 0.22 0.16 0.10 0.14 0.15 0.15 0.15 0.19 0.20 0.23 0.25 0.29 0.30 0.25 0.26 0.26 0.28 0.28 0.28 0.29 0.27 0.23 0.21 0.19 0.25 0.29 0.31 0.33 0.35 0.35 0.43 0.33 0.38 0.42 0.47 0.46 0.48 0.53 0.57 0.58 0.58 0.60 0.63 0.69 0.75 0.82 0.90 0.96
0.43 0.40 0.34 0.34 0.36 0.36 0.36 0.41 0.40 0.40 0.31 0.25 0.19 0.19 0.19 0.13 0.12 0.23 0.16 0.19 0.18 0.26 0.29 0.27 0.27 0.28 0.26 0.22 0.24 0.24 0.22 0.27 0.27 0.29 0.32 0.32 0.33 0.29 0.30 0.29 0.25 0.21 0.17 0.16 0.12 0.13 0.12 0.12 0.16 0.20 0.20 0.26 0.27 0.27 0.27 0.28 0.27 0.27 0.31 0.29 0.27 0.25 0.21 0.18 0.22 0.21 0.24 0.26 0.32 0.40 0.35 0.30 0.29 0.30 0.38 0.40 0.44 0.53 0.58 0.57 0.62 0.67 0.69 0.73 0.77 0.82 0.88 0.92
0.44 0.38 0.38 0.34 0.35 0.38 0.43 0.47 0.46 0.41 0.30 0.20 0.16 0.16 0.12 0.12 0.17 0.15 0.17 0.18 0.22 0.24 0.23 0.27 0.22 0.21 0.23 0.24 0.27 0.29 0.27 0.25 0.30 0.30 0.31 0.31 0.29 0.29 0.28 0.28 0.29 0.26 0.23 0.15 0.16 0.15 0.13 0.13 0.16 0.19 0.21 0.24 0.24 0.27 0.30 0.30 0.29 0.29 0.30 0.31 0.27 0.25 0.29 0.22 0.26 0.26 0.27 0.28 0.27 0.33 0.30 0.36 0.29 0.37 0.42 0.44 0.48 0.52 0.56 0.58 0.62 0.61 0.64 0.69 0.73 0.77 0.81 0.88
0.41 0.34 0.38 0.31 0.31 0.41 0.52 0.54 0.54 0.45 0.25 0.16 0.14 0.13 0.12 0.14 0.13 0.19 0.18 0.25 0.25 0.23 0.24 0.25 0.24 0.19 0.19 0.23 0.27 0.27 0.32 0.26 0.30 0.30 0.31 0.32 0.33 0.30 0.31 0.31 0.30 0.30 0.23 0.17 0.18 0.13 0.14 0.11 0.16 0.18 0.19 0.21 0.24 0.27 0.27 0.30 0.22 0.26 0.28 0.24 0.25 0.31 0.29 0.27 0.28 0.33 0.32 0.30 0.26 0.35 0.32 0.35 0.41 0.40 0.40 0.44 0.45 0.46 0.50 0.52 0.55 0.54 0.59 0.64 0.67 0.71 0.78 0.84
0.36 0.38 0.27 0.30 0.37 0.48 0.52 0.53 0.54 0.43 0.24 0.15 0.13 0.11 0.14 0.16 0.20 0.21 0.26 0.25 0.26 0.27 0.24 0.19 0.21 0.19 0.18 0.21 0.25 0.27 0.29 0.29 0.29 0.27 0.27 0.32 0.29 0.32 0.32 0.33 0.36 0.34 0.33 0.27 0.19 0.20 0.14 0.12 0.15 0.15 0.15 0.17 0.22 0.26 0.27 0.28 0.30 0.27 0.22 0.24 0.31 0.36 0.34 0.27 0.22 0.27 0.27 0.23 0.24 0.31 0.26 0.27 0.30 0.25 0.36 0.38 0.40 0.41 0.44 0.46 0.50 0.54 0.59 0.60 0.63 0.68 0.73 0.80
0.39 0.37 0.35 0.36 0.47 0.55 0.55 0.55 0.51 0.39 0.21 0.15 0.13 0.14 0.17 0.15 0.19 0.20 0.25 0.26 0.25 0.27 0.23 0.22 0.23 0.25 0.18 0.18 0.23 0.26 0.28 0.25 0.25 0.25 0.24 0.30 0.26 0.34 0.33 0.33 0.37 0.35 0.35 0.36 0.27 0.23 0.19 0.12 0.16 0.17 0.14 0.16 0.18 0.21 0.22 0.25 0.27 0.24 0.23 0.30 0.24 0.24 0.23 0.28 0.26 0.21 0.22 0.22 0.22 0.26 0.27 0.27 0.28 0.26 0.31 0.32 0.35 0.37 0.39 0.42 0.47 0.51 0.54 0.55 0.60 0.65 0.72 0.79
0.41 0.36 0.26 0.44 0.58 0.59 0.57 0.55 0.45 0.32 0.20 0.14 0.13 0.13 0.17 0.16 0.19 0.20 0.21 0.23 0.25 0.24 0.22 0.23 0.22 0.25 0.23 0.19 0.24 0.27 0.27 0.23 0.26 0.25 0.23 0.27 0.24 0.32 0.33 0.37 0.35 0.37 0.36 0.35 0.31 0.28 0.24 0.15 0.14 0.20 0.17 0.15 0.15 0.15 0.14 0.17 0.22 0.25 0.27 0.26 0.31 0.28 0.25 0.23 0.25 0.26 0.26 0.22 0.22 0.22 0.26 0.23 0.30 0.29 0.30 0.30 0.34 0.37 0.40 0.43 0.45 0.48 0.52 0.54 0.58 0.63 0.68 0.73
0.36 0.28 0.26 0.57 0.60 0.59 0.58 0.51 0.36 0.28 0.20 0.14 0.14 0.14 0.19 0.17 0.18 0.20 0.22 0.21 0.20 0.20 0.20 0.20 0.23 0.21 0.22 0.20 0.23 0.26 0.29 0.28 0.26 0.27 0.26 0.28 0.28 0.35 0.32 0.38 0.36 0.38 0.39 0.37 0.31 0.33 0.25 0.23 0.13 0.18 0.22 0.20 0.12 0.13 0.12 0.14 0.16 0.19 0.21 0.21 0.24 0.25 0.30 0.28 0.30 0.27 0.24 0.24 0.23 0.21 0.21 0.24 0.29 0.33 0.32 0.32 0.35 0.38 0.41 0.42 0.45 0.47 0.50 0.53 0.56 0.60 0.66 0.72
0.43 0.31 0.32 0.63 0.65 0.64 0.58 0.44 0.28 0.22 0.20 0.20 0.17 0.15 0.16 0.17 0.20 0.21 0.21 0.22 0.21 0.24 0.21 0.22 0.22 0.21 0.22 0.21 0.21 0.29 0.29 0.28 0.28 0.28 0.28 0.28 0.28 0.26 0.33 0.35 0.36 0.35 0.38 0.38 0.34 0.32 0.27 0.24 0.16 0.17 0.18 0.16 0.15 0.15 0.13 0.14 0.18 0.18 0.18 0.19 0.22 0.22 0.22 0.20 0.20 0.29 0.28 0.25 0.23 0.22 0.19 0.24 0.29 0.35 0.35 0.34 0.36 0.36 0.38 0.39 0.41 0.42 0.45 0.50 0.55 0.60 0.66 0.70
0.34 0.24 0.34 0.66 0.63 0.58 0.48 0.29 0.25 0.27 0.23 0.20 0.18 0.18 0.16 0.19 0.18 0.19 0.21 0.23 0.22 0.20 0.23 0.20 0.20 0.19 0.19 0.20 0.20 0.24 0.28 0.28 0.28 0.28 0.30 0.27 0.30 0.30 0.35 0.41 0.40 0.39 0.35 0.32 0.31 0.33 0.31 0.28 0.22 0.16 0.17 0.17 0.17 0.20 0.20 0.18 0.18 0.19 0.20 0.20 0.23 0.23 0.24 0.21 0.18 0.22 0.27 0.27 0.29 0.27 0.22 0.23 0.32 0.35 0.35 0.37 0.39 0.39 0.39 0.40 0.40 0.42 0.46 0.50 0.53 0.58 0.65 0.69
0.32 0.26 0.31 0.46 0.61 0.51 0.41 0.33 0.32 0.29 0.23 0.23 0.29 0.25 0.25 0.23 0.24 0.25 0.20 0.22 0.21 0.23 0.22 0.21 0.20 0.20 0.21 0.21 0.21 0.22 0.27 0.28 0.29 0.28 0.30 0.31 0.32 0.34 0.40 0.44 0.49 0.43 0.39 0.34 0.34 0.35 0.35 0.26 0.22 0.20 0.20 0.20 0.22 0.22 0.24 0.24 0.21 0.19 0.20 0.22 0.22 0.21 0.22 0.21 0.20 0.24 0.24 0.27 0.25 0.25 0.21 0.23 0.30 0.36 0.36 0.38 0.40 0.42 0.41 0.41 0.42 0.45 0.51 0.54 0.57 0.60 0.63 0.68
0.35 0.33 0.33 0.62 0.67 0.59 0.36 0.25 0.25 0.26 0.27 0.29 0.27 0.24 0.28 0.27 0.26 0.24 0.22 0.23 0.21 0.20 0.19 0.19 0.20 0.21 0.20 0.24 0.23 0.21 0.27 0.25 0.31 0.31 0.31 0.33 0.32 0.42 0.47 0.50 0.56 0.50 0.45 0.35 0.31 0.38 0.29 0.29 0.24 0.19 0.16 0.16 0.18 0.20 0.19 0.23 0.23 0.20 0.19 0.21 0.22 0.23 0.23 0.25 0.26 0.30 0.23 0.24 0.25 0.23 0.19 0.22 0.29 0.37 0.38 0.38 0.40 0.38 0.37 0.42 0.45 0.44 0.50 0.54 0.59 0.62 0.66 0.69
0.39 0.43 0.45 0.53 0.60 0.56 0.34 0.35 0.33 0.33 0.32 0.31 0.31 0.28 0.26 0.26 0.28 0.25 0.25 0.23 0.24 0.24 0.26 0.24 0.22 0.22 0.20 0.22 0.22 0.23 0.26 0.27 0.28 0.35 0.35 0.35 0.36 0.45 0.51 0.57 0.63 0.56 0.53 0.47 0.41 0.42 0.32 0.29 0.25 0.19 0.15 0.12 0.11 0.11 0.11 0.13 0.17 0.20 0.21 0.22 0.23 0.22 0.22 0.23 0.22 0.25 0.22 0.24 0.25 0.23 0.21 0.25 0.29 0.34 0.35 0.36 0.37 0.36 0.40 0.44 0.48 0.49 0.50 0.54 0.58 0.61 0.66 0.69
0.38 0.26 0.34 0.40 0.51 0.47 0.48 0.46 0.40 0.36 0.35 0.35 0.32 0.32 0.33 0.29 0.31 0.34 0.36 0.35 0.40 0.41 0.38 0.36 0.34 0.31 0.25 0.23 0.22 0.21 0.22 0.27 0.28 0.30 0.35 0.34 0.37 0.44 0.52 0.57 0.60 0.58 0.56 0.50 0.47 0.41 0.34 0.32 0.28 0.24 0.19 0.14 0.14 0.15 0.17 0.18 0.19 0.17 0.19 0.20 0.21 0.22 0.23 0.25 0.25 0.24 0.21 0.23 0.22 0.23 0.23 0.24 0.25 0.27 0.30 0.32 0.34 0.34 0.37 0.42 0.43 0.45 0.48 0.54 0.60 0.61 0.62 0.64
0.47 0.34 0.36 0.28 0.41 0.42 0.43 0.46 0.41 0.40 0.35 0.42 0.33 0.37 0.33 0.34 0.36 0.36 0.45 0.37 0.45 0.43 0.41 0.39 0.36 0.31 0.28 0.26 0.23 0.22 0.22 0.23 0.27 0.28 0.31 0.33 0.38 0.43 0.52 0.57 0.59 0.65 0.63 0.53 0.49 0.39 0.34 0.29 0.29 0.27 0.24 0.22 0.17 0.15 0.18 0.19 0.17 0.19 0.19 0.19 0.21 0.22 0.23 0.24 0.23 0.21 0.25 0.24 0.20 0.24 0.26 0.23 0.24 0.25 0.28 0.31 0.34 0.36 0.40 0.42 0.45 0.48 0.50 0.52 0.54 0.60 0.66 0.67
0.32 0.48 0.51 0.51 0.36 0.32 0.37 0.39 0.45 0.41 0.42 0.43 0.38 0.42 0.37 0.37 0.38 0.35 0.44 0.46 0.45 0.47 0.38 0.37 0.35 0.34 0.32 0.28 0.27 0.23 0.22 0.22 0.25 0.25 0.30 0.34 0.37 0.45 0.48 0.55 0.56 0.62 0.61 0.62 0.52 0.37 0.32 0.28 0.29 0.29 0.27 0.25 0.23 0.20 0.19 0.19 0.19 0.21 0.22 0.22 0.22 0.23 0.25 0.24 0.24 0.25 0.26 0.23 0.20 0.23 0.26 0.24 0.24 0.25 0.27 0.30 0.33 0.36 0.39 0.42 0.45 0.49 0.53 0.56 0.57 0.59 0.62 0.64
0.44 0.43 0.43 0.51 0.37 0.38 0.39 0.43 0.45 0.43 0.41 0.41 0.40 0.42 0.38 0.39 0.39 0.42 0.39 0.41 0.43 0.43 0.44 0.34 0.34 0.35 0.34 0.34 0.31 0.26 0.26 0.21 0.22 0.28 0.31 0.33 0.34 0.41 0.44 0.49 0.56 0.62 0.60 0.55 0.53 0.43 0.34 0.30 0.30 0.30 0.27 0.26 0.26 0.24 0.23 0.22 0.21 0.21 0.22 0.23 0.26 0.26 0.26 0.26 0.26 0.27 0.27 0.25 0.25 0.25 0.26 0.25 0.25 0.27 0.28 0.31 0.35 0.38 0.41 0.48 0.52 0.51 0.50 0.52 0.54 0.57 0.59 0.62
0.31 0.32 0.30 0.42 0.41 0.34 0.33 0.37 0.39 0.39 0.35 0.38 0.38 0.43 0.46 0.43 0.41 0.44 0.47 0.43 0.39 0.41 0.51 0.43 0.42 0.47 0.47 0.44 0.41 0.33 0.31 0.29 0.25 0.24 0.31 0.35 0.37 0.42 0.45 0.49 0.52 0.60 0.61 0.55 0.53 0.54 0.36 0.29 0.32 0.30 0.27 0.26 0.26 0.26 0.26 0.25 0.24 0.22 0.22 0.24 0.25 0.27 0.28 0.28 0.28 0.28 0.30 0.29 0.29 0.28 0.27 0.25 0.28 0.31 0.32 0.36 0.41 0.44 0.45 0.45 0.46 0.49 0.52 0.53 0.53 0.54 0.57 0.59
0.43 0.47 0.47 0.36 0.29 0.28 0.35 0.36 0.33 0.32 0.31 0.35 0.37 0.42 0.45 0.47 0.45 0.47 0.47 0.52 0.46 0.42 0.47 0.47 0.50 0.47 0.50 0.48 0.46 0.42 0.44 0.40 0.35 0.31 0.36 0.40 0.36 0.46 0.44 0.51 0.58 0.55 0.58 0.55 0.53 0.54 0.45 0.35 0.36 0.32 0.26 0.24 0.26 0.26 0.25 0.25 0.25 0.24 0.23 0.24 0.25 0.25 0.25 0.26 0.26 0.28 0.27 0.26 0.27 0.28 0.26 0.24 0.28 0.34 0.37 0.39 0.41 0.41 0.41 0.44 0.47 0.50 0.53 0.54 0.55 0.55 0.56 0.60
0.44 0.52 0.52 0.43 0.29 0.32 0.29 0.32 0.32 0.30 0.26 0.36 0.42 0.44 0.44 0.46 0.51 0.50 0.44 0.53 0.54 0.53 0.53 0.53 0.55 0.50 0.48 0.48 0.46 0.49 0.52 0.47 0.41 0.39 0.38 0.45 0.56 0.57 0.56 0.57 0.59 0.58 0.57 0.54 0.57 0.51 0.49 0.45 0.40 0.39 0.30 0.25 0.26 0.26 0.25 0.25 0.24 0.22 0.23 0.25 0.25 0.26 0.27 0.27 0.28 0.30 0.29 0.29 0.27 0.25 0.25 0.28 0.30 0.35 0.35 0.36 0.38 0.39 0.41 0.43 0.46 0.50 0.53 0.53 0.54 0.56 0.60 0.66
Wind_Speed
16 16 17 17 17 17 17 18 18 18 17 17 17 17 16 16 16 15 15 15 14 14 14 13 13 12 12 12 12 11 11 11 10 10 10 12 13 15 16 16 15 16 15 14 13 12 11 9 9 8 7 6 6 6 5 5 4 3 3 2 1 1 2 3 3 3 4 5 6 6 7 7 5 5 6 8 9 9 9 7 8 7 9 11 11 14 15 14
16 16 17 17 17 18 18 18 18 18 18 18 18 18 17 17 16 16 16 15 15 15 14 13 13 12 12 12 12 11 11 10 10 11 12 12 12 14 16 16 16 17 17 15 14 14 12 11 10 8 7 6 6 6 6 5 5 3 2 2 2 2 2 3 4 4 5 5 6 6 7 6 4 7 8 8 8 8 9 8 9 10 10 12 13 15 15 14
16 17 17 17 17 18 18 19 19 19 19 19 19 19 18 18 17 17 17 16 16 15 15 14 13 12 12 12 11 11 10 10 10 11 10 9 9 12 14 16 16 18 18 16 16 15 14 12 11 9 7 6 6 6 6 6 5 4 2 1 2 2 2 3 6 5 5 7 7 6 7 5 4 7 8 8 8 7 7 8 9 11 11 12 14 14 14 14
17 17 17 17 17 18 18 19 19 19 20 19 19 19 19 19 18 18 17 17 17 16 16 15 14 13 12 12 11 11 10 9 9 8 7 6 6 9 12 14 15 18 19 17 16 15 14 12 11 9 7 7 7 7 7 6 5 4 3 3 3 3 2 4 8 7 6 8 7 7 7 6 5 6 7 9 7 4 6 8 9 11 13 14 14 14 14 14
18 18 18 18 18 18 18 19 19 19 20 20 20 20 20 20 19 19 18 18 18 17 17 16 15 14 13 12 11 10 8 7 7 6 6 7 8 9 12 14 15 17 19 18 16 15 14 12 11 9 8 7 7 7 7 7 6 4 3 4 3 4 3 6 9 8 8 8 7 7 6 6 6 6 8 10 7 4 6 9 10 12 13 14 14 14 13 13
18 18 19 19 19 19 19 19 19 19 20 20 20 21 21 21 20 20 19 19 19 18 18 17 16 14 13 13 11 10 8 7 7 7 7 8 9 10 11 14 15 17 19 18 17 15 14 12 11 9 8 8 8 8 8 7 6 4 4 4 5 5 4 7 10 10 10 8 7 7 6 7 7 5 7 8 4 4 7 10 11 12 13 14 14 13 13 13
19 19 19 19 19 19 20 19 20 20 20 20 21 21 21 22 21 21 21 20 19 19 19 18 17 15 14 13 11 10 9 10 11 9 9 8 9 10 10 12 15 18 19 19 17 16 15 13 12 11 9 8 9 9 8 7 6 6 5 5 7 7 6 9 11 11 11 10 8 7 7 7 6 5 6 5 2 4 8 10 11 13 14 14 13 13 12 12
20 20 20 20 20 20 20 20 20 20 20 21 21 21 22 22 22 22 22 21 20 20 19 19 18 16 15 13 12 11 12 13 12 10 8 7 8 9 10 12 15 18 19 20 18 16 15 14 13 12 10 9 10 9 8 6 6 6 6 5 6 7 8 11 12 11 10 9 8 8 7 6 5 5 6 3 3 6 8 10 12 13 14 13 14 13 12 12
21 21 21 21 21 21 21 21 21 21 21 21 22 22 22 22 22 23 22 22 22 21 20 19 18 17 15 14 12 12 13 13 11 9 7 7 7 9 10 12 15 18 19 19 19 17 16 14 14 13 11 10 10 9 8 6 6 6 6 6 7 8 10 12 12 11 10 8 8 8 5 4 4 6 4 3 6 8 9 11 12 13 13 13 13 13 12 12
21 21 21 21 21 21 21 21 21 21 22 22 22 22 22 22 22 23 23 23 22 22 21 19 18 17 16 15 13 13 14 13 11 10 9 7 8 10 11 13 16 18 18 19 19 18 16 15 14 13 11 10 10 9 7 7 7 6 6 6 8 9 11 12 11 10 9 8 9 8 4 4 5 5 3 4 8 9 10 11 12 12 13 13 12 12 12 12
21 21 22 22 22 22 22 22 22 22 22 22 23 23 23 23 23 23 23 23 22 22 21 20 19 18 17 16 15 15 15 13 13 12 11 9 9 11 12 13 16 18 19 19 18 18 17 16 15 13 11 11 10 8 8 8 7 7 8 6 7 9 10 10 10 10 8 7 8 7 5 4 4 2 3 6 8 10 11 11 12 12 12 12 12 11 11 11
21 22 22 22 22 22 22 23 23 23 23 23 23 23 23 23 23 23 23 22 22 21 20 20 19 18 18 17 18 18 16 15 15 14 13 12 11 12 14 14 16 18 19 19 19 19 18 17 15 13 12 11 9 8 7 7 6 8 9 8 7 8 9 9 9 10 9 6 8 9 5 3 3 1 4 8 8 10 11 11 11 11 11 11 11 11 11 11
21 22 22 22 22 23 23 23 23 24 24 24 24 23 23 23 23 23 22 21 20 20 19 19 19 19 18 18 20 20 18 18 16 16 15 14 13 14 15 15 16 18 19 19 20 20 19 18 16 14 13 11 10 8 7 6 7 8 8 9 10 9 9 9 8 9 8 7 11 9 3 3 3 2 6 8 9 10 10 10 11 10 10 10 10 10 11 11
22 22 22 22 23 23 23 23 24 24 24 24 24 24 23 23 23 22 21 19 18 18 18 18 18 18 18 19 20 19 19 18 17 17 16 15 14 15 16 16 17 18 19 20 19 19 19 18 17 15 14 12 10 8 6 6 7 9 9 9 10 10 10 9 8 10 8 9 11 6 2 4 3 3 7 9 10 11 10 10 11 10 10 10 10 10 10 11
23 23 23 23 23 23 23 24 24 25 25 25 25 24 24 23 22 21 19 18 17 16 16 16 17 18 18 20 20 18 18 18 17 17 16 16 16 16 17 18 18 18 19 20 20 19 19 18 17 15 14 13 10 7 7 7 8 10 11 10 11 10 10 9 9 10 9 9 9 4 3 3 2 4 8 9 10 11 10 10 11 10 10 10 10 11 11 11
23 24 24 24 24 24 24 24 24 25 25 25 25 25 24 22 21 19 18 17 16 15 15 15 17 17 17 19 18 17 17 18 17 16 16 17 18 17 17 18 18 19 20 20 20 20 19 18 17 16 15 13 11 8 7 9 10 11 12 13 13 11 11 10 9 9 8 9 9 5 5 3 2 5 8 9 10 10 9 9 11 11 11 11 11 11 11 11
24 24 24 24 24 24 24 24 24 25 25 25 25 25 23 21 20 18 17 16 16 16 15 16 16 17 19 19 18 18 18 19 18 17 17 18 19 19 18 18 18 19 20 20 20 20 20 19 18 17 15 14 13 10 9 11 12 12 12 13 13 12 12 11 10 9 8 9 8 6 6 4 3 6 7 8 9 9 9 9 10 11 10 11 11 11 12 12
25 25 25 25 25 25 25 25 25 25 25 25 25 24 22 20 19 18 17 17 17 16 16 16 15 16 18 19 19 20 20 20 20 19 19 19 19 20 19 19 19 19 20 20 20 21 21 19 18 17 16 15 15 13 12 13 15 15 14 14 14 13 13 13 11 10 10 10 9 6 6 5 5 6 7 8 9 9 9 9 10 11 11 11 11 11 12 12
26 26 26 25 25 25 25 26 25 25 25 25 24 22 20 18 18 18 17 17 17 17 17 17 15 16 18 19 20 21 22 22 21 20 20 19 20 20 20 20 20 20 21 20 20 21 21 19 18 18 18 17 17 16 14 15 16 16 15 15 16 14 13 13 9 9 11 11 9 8 7 6 6 7 7 8 9 9 8 9 9 10 11 10 11 11 12 12
26 26 26 26 26 26 26 26 26 26 25 23 22 20 17 17 17 17 18 19 20 19 20 20 19 19 20 22 22 22 22 23 22 22 21 20 20 20 21 21 20 20 21 21 21 21 21 20 20 21 21 19 19 18 15 14 14 15 15 15 15 15 14 12 9 8 11 10 10 8 7 7 7 7 7 8 8 8 8 9 9 10 10 11 11 11 12 12
27 27 26 26 26 26 26 26 26 26 24 21 20 18 16 16 16 17 19 20 21 20 22 23 22 22 22 22 23 22 22 23 24 24 23 23 22 21 22 22 21 21 22 21 20 21 22 22 22 23 22 21 19 18 15 13 14 15 16 16 15 15 14 13 11 10 11 10 9 8 8 8 8 7 8 8 8 8 9 10 10 11 11 11 11 12 12 12
27 27 27 27 27 27 27 26 26 25 22 20 19 17 16 16 16 18 18 19 20 21 22 22 23 23 23 23 23 23 23 23 25 26 25 24 24 23 23 22 22 22 22 21 21 21 22 23 24 23 22 20 18 17 16 14 14 15 16 15 15 15 14 13 12 11 11 10 9 9 9 8 7 8 8 9 10 9 10 10 10 11 11 11 12 12 13 12
27 27 27 27 27 27 27 27 26 23 20 20 20 18 17 17 17 18 17 18 19 19 20 20 22 23 22 23 23 23 24 24 25 27 26 25 25 25 24 23 23 23 23 23 23 23 22 23 24 23 22 21 18 17 17 15 15 15 16 15 14 14 14 14 13 12 11 10 10 9 9 8 7 8 10 11 11 10 10 11 11 12 12 13 13 13 14 14
27 27 27 27 27 27 27 27 24 21 20 21 20 18 18 18 19 18 17 17 17 17 18 19 19 20 21 22 21 22 23 25 26 27 28 27 26 26 25 24 24 24 25 25 25 24 23 23 24 24 23 23 20 19 19 17 16 16 17 16 14 14 15 15 13 12 11 11 11 9 8 10 10 10 11 11 11 11 10 11 12 12 13 13 13 13 14 14
27 27 27 27 27 27 28 25 21 20 22 21 19 18 18 19 20 18 17 16 16 16 16 16 16 17 18 19 20 21 21 24 27 27 28 29 28 26 26 26 25 26 26 25 25 25 24 23 24 25 24 24 22 21 20 19 17 17 18 18 17 15 14 14 14 12 12 13 14 11 10 11 12 13 13 11 11 12 11 12 13 13 14 13 13 13 14 14
28 27 27 27 27 27 26 22 20 22 23 19 17 18 19 20 20 18 16 15 16 15 13 13 14 14 15 16 18 19 19 22 26 27 27 29 29 28 26 26 26 26 26 25 24 25 25 24 24 25 25 24 23 22 22 20 17 17 19 19 18 15 13 15 15 14 14 15 15 15 14 12 12 13 14 13 13 13 13 12 13 14 14 14 14 14 14 14
28 28 27 27 26 25 23 21 22 23 20 18 19 19 20 20 19 17 16 15 15 13 11 12 13 13 14 15 17 18 18 19 22 27 28 28 29 29 28 28 27 27 26 25 26 26 25 26 26 25 25 25 25 23 23 21 18 18 19 19 18 16 15 16 16 16 16 14 14 16 16 13 13 14 13 13 14 14 14 14 13 14 15 15 15 15 15 16
28 28 27 27 26 25 23 23 23 22 20 20 20 20 20 19 17 15 14 13 13 12 11 12 12 12 13 14 17 19 18 17 18 24 27 28 28 27 29 29 28 28 27 27 27 26 25 27 28 27 26 26 26 24 23 22 19 19 18 18 17 16 16 16 15 15 16 15 15 17 16 14 15 15 12 12 14 15 16 16 14 15 16 16 16 16 16 16
29 28 28 27 27 25 23 23 23 22 22 21 21 21 20 18 16 14 13 14 14 12 11 12 12 13 13 13 17 19 19 18 18 20 24 27 28 26 27 29 28 28 28 28 29 27 25 27 29 28 27 27 26 25 25 23 20 19 18 16 15 14 14 15 15 14 14 15 17 18 17 15 16 16 13 12 14 16 16 15 14 15 16 17 17 17 17 16
30 29 29 28 26 25 23 23 24 24 22 21 21 21 19 17 15 14 14 14 13 13 13 13 13 12 12 12 16 18 18 19 18 18 21 25 27 26 26 27 27 27 27 28 29 28 26 26 28 29 29 28 26 25 26 26 22 19 18 17 15 14 14 14 14 14 13 14 17 19 19 17 16 17 16 14 15 16 15 13 13 14 16 17 17 18 17 16
30 30 29 28 26 25 23 24 24 23 22 21 21 20 18 17 16 15 15 15 14 14 13 12 12 11 10 11 14 16 17 18 19 18 20 22 24 25 25 26 27 27 28 28 29 28 27 27 27 29 29 28 26 26 26 26 23 20 19 19 17 16 14 13 13 14 13 14 16 18 17 17 16 16 17 18 18 17 15 14 13 13 15 17 17 18 18 17
31 31 30 29 27 26 25 25 24 22 22 21 21 19 17 17 18 18 16 14 14 13 12 12 12 11 11 10 12 15 16 18 20 20 20 22 23 25 27 27 28 28 28 30 29 28 29 30 29 28 28 29 27 26 26 25 23 22 21 21 19 17 15 14 15 15 15 16 16 15 14 16 17 18 18 19 19 17 16 16 14 13 15 16 17 17 17 17
32 31 30 29 27 27 27 27 25 24 23 22 20 19 18 19 20 20 18 15 14 13 12 12 12 12 11 11 12 14 15 18 21 22 21 21 22 25 27 27 28 29 28 28 29 29 28 29 31 30 28 29 30 28 27 26 25 24 24 23 21 18 16 16 16 14 14 16 15 14 14 15 16 16 17 18 19 18 18 19 16 14 15 17 18 17 16 16
33 31 30 28 27 27 27 27 26 25 24 22 20 19 20 21 21 20 20 19 17 15 14 14 14 14 13 13 14 14 14 17 20 22 22 22 22 24 26 26 28 28 27 27 29 30 29 29 31 33 31 30 31 30 28 27 26 26 25 24 24 21 18 17 16 15 15 15 14 13 14 14 14 13 14 15 16 16 18 19 16 14 15 17 18 17 17 17
32 30 29 28 27 27 26 26 25 25 24 22 20 21 24 23 21 19 20 20 19 18 18 17 17 17 16 15 15 13 13 16 18 21 23 23 23 24 25 27 28 27 27 28 28 29 30 31 31 32 32 31 31 31 28 26 26 26 25 25 26 26 22 19 18 18 17 14 14 15 15 16 16 15 14 11 11 14 17 17 16 16 16 16 17 17 17 18
31 29 28 27 26 25 25 25 25 25 24 22 22 25 26 24 21 20 19 18 18 18 18 18 17 16 16 15 14 13 12 14 16 20 22 24 24 24 24 26 27 28 28 28 28 27 28 30 30 30 32 33 33 32 30 29 28 26 25 27 27 25 23 21 20 18 16 16 16 16 16 16 15 16 16 13 13 14 15 15 16 16 15 16 18 17 17 18
30 28 27 26 26 25 25 25 25 25 25 23 25 27 26 24 23 21 20 18 18 17 16 16 15 15 15 14 14 14 12 12 14 18 21 23 24 24 24 24 26 28 29 28 28 28 27 28 29 30 32 34 34 32 31 32 30 27 28 28 25 23 22 21 20 17 16 18 19 18 19 18 15 14 14 14 16 16 15 15 15 15 15 17 19 18 18 20
30 28 27 27 26 26 26 26 25 25 24 25 28 27 25 25 23 22 21 20 19 17 16 16 16 15 15 16 16 16 14 14 14 16 19 22 23 24 25 24 25 28 29 28 28 28 27 27 27 28 31 31 31 32 33 33 32 30 29 28 25 24 24 23 21 19 17 18 18 18 19 20 19 17 14 14 17 17 16 15 15 15 16 17 18 18 19 20
29 27 26 25 25 24 25 25 25 25 25 26 28 27 25 25 23 23 23 21 21 20 20 20 19 17 17 17 18 18 16 16 16 16 18 20 21 22 23 23 23 26 28 28 28 27 27 28 27 27 27 28 29 33 36 35 32 30 29 28 27 26 25 24 24 22 21 20 19 18 18 19 20 18 16 16 17 16 16 15 13 14 15 17 17 18 18 20
28 26 26 24 22 22 22 24 25 26 26 27 28 26 25 24 23 24 25 23 23 23 22 22 21 20 20 19 20 19 18 18 17 16 17 19 20 21 21 21 21 23 26 28 28 27 27 28 28 26 25 26 30 34 37 36 33 32 31 31 29 27 25 24 23 22 21 20 19 19 19 20 20 17 16 18 16 15 15 14 13 14 15 17 17 17 18 19
27 26 27 25 23 22 22 24 26 27 27 28 27 26 25 24 23 24 25 25 24 24 24 23 23 22 21 20 20 20 19 19 18 18 18 19 20 20 20 21 20 20 23 26 28 28 28 29 29 28 27 28 30 32 33 34 34 33 33 33 31 29 26 24 24 24 22 21 20 19 20 22 20 17 17 18 16 15 16 15 15 16 16 16 16 17 18 20
27 27 28 27 26 26 25 25 26 27 27 27 27 26 25 25 24 24 25 24 24 24 24 24 24 23 23 22 21 21 21 20 20 19 19 20 21 20 19 20 20 19 21 25 28 28 27 27 29 30 30 30 30 29 29 31 32 32 32 33 32 31 30 28 26 24 24 23 21 20 20 22 20 17 17 18 16 15 16 16 16 17 17 16 15 16 18 20
27 28 29 28 28 28 26 26 26 27 27 27 27 26 26 25 25 25 25 24 24 24 23 23 23 23 23 22 21 21 21 21 21 21 20 20 21 21 21 20 20 19 20 24 27 27 26 27 29 29 29 30 29 28 27 28 29 30 31 31 32 33 33 32 29 26 25 25 22 20 21 22 20 18 18 19 17 17 18 18 18 18 16 15 15 16 18 20
28 29 29 27 27 27 26 26 26 27 27 27 27 27 27 27 26 26 25 25 24 24 24 24 24 23 23 23 22 22 22 21 21 21 20 20 21 21 21 20 19 19 21 24 25 26 28 28 28 27 26 27 28 28 30 30 30 31 31 30 31 32 31 30 28 27 27 27 25 23 22 23 21 18 19 20 19 19 19 19 19 18 16 15 16 17 18 19
28 28 27 27 26 27 27 26 26 26 27 26 27 27 26 27 27 27 27 26 26 25 24 24 24 24 24 23 23 24 24 23 22 21 20 20 21 21 20 18 18 18 22 25 26 26 28 29 29 28 27 28 29 29 31 33 32 32 31 31 31 31 30 29 27 28 28 28 27 25 24 24 22 19 18 20 19 18 18 17 18 18 17 17 17 18 19 19
26 26 26 26 25 26 27 26 25 26 26 26 26 26 26 26 26 27 27 26 26 26 24 24 24 23 24 24 24 25 25 24 24 23 22 21 21 21 19 17 17 18 20 23 25 24 26 28 30 31 31 31 31 31 31 30 30 31 32 32 31 30 30 29 27 29 29 26 27 28 26 24 24 21 20 20 18 18 17 16 17 18 18 18 18 18 17 17
26 26 26 25 25 25 25 25 24 25 26 26 25 25 25 25 25 25 26 25 25 25 24 25 25 24 24 25 25 25 25 25 26 26 25 24 23 22 20 18 18 17 16 18 23 24 24 27 29 31 33 33 32 32 30 29 30 31 31 31 32 30 30 29 30 30 28 26 27 28 25 25 26 24 23 21 19 18 18 17 18 18 18 17 17 16 16 17
27 27 26 26 26 25 25 26 26 26 27 26 26 25 24 24 24 24 25 25 24 24 24 24 25 26 26 25 24 25 25 25 26 27 26 25 24 22 21 19 19 16 13 14 20 23 24 27 27 29 31 32 32 31 30 30 31 31 31 31 30 30 29 30 31 30 28 29 29 28 26 27 26 25 24 22 21 20 19 18 18 18 17 16 15 16 18 18
28 28 27 26 27 27 27 27 27 28 28 27 26 25 25 25 24 24 24 24 24 24 24 24 24 25 25 25 25 25 25 26 26 27 26 26 24 22 21 20 19 16 12 12 16 20 23 25 25 27 30 31 31 31 30 31 32 32 33 32 31 30 30 31 30 29 29 31 30 28 28 29 27 24 24 23 22 20 19 17 17 17 17 16 16 17 19 20
28 28 28 27 28 29 29 28 28 27 27 27 26 25 24 25 24 23 24 25 24 23 23 24 24 24 24 25 26 26 27 26 26 26 26 27 26 24 22 21 20 17 13 12 14 16 20 23 23 24 27 29 30 30 30 31 32 34 35 35 33 32 31 31 30 27 27 29 29 27 28 30 27 24 24 22 19 19 19 18 19 18 18 17 17 18 20 20
28 29 28 28 28 28 28 28 27 26 26 26 26 25 24 24 24 23 25 26 26 25 24 23 24 23 23 24 26 26 25 25 26 26 26 27 28 26 24 23 20 17 15 14 14 14 17 20 21 21 24 27 28 29 30 30 31 33 35 36 34 32 31 30 29 27 27 28 28 27 29 30 27 25 24 22 20 20 20 20 20 20 19 18 19 20 20 19
28 28 28 28 28 27 27 27 27 27 26 25 25 24 25 25 25 24 25 25 26 27 25 23 23 22 23 23 24 23 24 25 26 26 26 28 29 28 26 23 21 19 17 16 15 14 15 16 18 19 22 26 27 28 28 27 27 31 34 34 34 33 31 30 28 28 28 27 27 29 30 28 26 25 25 24 23 22 22 22 22 22 21 21 21 20 19 19
Wind_Direction
305 303 301 300 300 300 300 300 300 300 300 299 298 298 299 300 300 299 298 298 299 298 298 297 297 297 297 297 297 296 292 284 280 270 257 250 242 235 226 221 220 214 209 208 204 201 203 205 201 194 193 194 197 196 190 196 189 165 141 131 145 183 190 164 159 137 114 111 127 139 132 119 97 99 109 107 109 116 110 106 115 107 116 129 131 138 142 141
309 306 303 301 300 299 299 299 299 299 298 298 297 296 296 297 297 297 296 295 296 296 296 295 295 293 293 295 295 296 292 282 277 268 260 258 248 233 224 221 217 211 208 206 204 201 201 205 201 192 191 192 196 199 201 205 195 182 152 148 208 205 213 181 163 142 124 121 126 136 137 131 106 109 120 115 117 117 104 104 111 111 118 126 132 139 140 140
311 309 307 304 302 301 299 298 298 298 297 297 296 296 295 294 294 294 293 293 293 293 293 293 292 289 289 290 293 295 290 282 275 267 260 255 242 226 218 220 216 210 207 205 205 203 200 202 199 192 191 194 199 201 204 209 204 203 182 194 239 206 206 182 169 165 145 132 123 133 138 132 119 120 123 121 123 119 113 117 115 119 126 130 137 141 141 141
309 309 308 307 305 303 301 300 298 297 296 295 295 294 293 292 292 291 290 290 289 289 289 289 289 286 284 285 289 290 288 282 270 255 246 239 233 220 214 219 216 209 206 204 203 200 198 198 196 194 192 196 203 202 204 210 206 204 194 211 235 197 207 197 177 172 155 141 129 133 133 129 130 126 126 126 122 119 138 143 132 132 135 135 140 142 143 143
308 308 308 307 306 305 303 302 300 299 297 295 294 293 293 291 290 289 287 287 286 286 286 285 285 283 280 280 281 282 282 278 258 241 245 249 245 233 222 221 216 208 204 201 199 195 195 197 196 194 193 197 199 199 207 211 199 201 223 220 213 195 208 200 178 166 157 144 134 137 134 132 130 126 138 136 129 144 158 153 143 140 140 139 141 142 143 145
307 306 306 306 306 305 304 303 302 301 299 297 295 293 292 290 288 287 285 284 283 283 282 282 281 279 277 275 272 270 262 255 251 251 265 263 250 240 228 220 212 206 201 198 197 195 195 196 195 193 193 195 192 196 209 211 200 212 243 228 210 203 191 184 173 162 155 146 145 149 138 134 126 121 150 148 138 156 155 150 145 143 143 142 142 143 144 147
305 305 305 305 305 305 305 304 302 301 300 298 296 294 292 290 288 286 284 282 280 280 280 279 278 274 274 270 264 260 249 249 256 260 270 266 246 236 226 215 206 202 198 196 196 194 194 193 192 190 187 192 193 199 207 215 218 222 240 235 213 202 176 171 170 162 158 154 152 145 135 144 137 128 156 161 145 150 148 147 146 144 145 145 145 147 148 150
305 304 304 304 304 304 304 304 303 302 300 299 297 295 293 291 289 286 283 281 278 277 276 276 273 270 270 266 259 256 250 252 256 255 263 261 241 227 218 209 201 198 197 196 195 194 193 190 191 189 188 196 195 201 209 219 229 223 232 229 204 192 170 165 166 161 159 153 147 140 139 152 143 129 147 159 137 144 148 148 148 147 147 149 151 152 153 155
304 304 303 303 303 303 303 303 303 302 301 299 298 296 294 292 289 287 283 280 278 275 273 272 269 266 264 261 257 253 250 249 246 245 255 256 236 221 213 203 198 196 195 196 196 194 193 192 194 192 193 198 196 208 217 217 230 228 221 205 184 179 166 161 163 160 157 151 145 140 136 135 128 125 132 151 145 147 151 151 153 153 153 154 156 158 159 161
304 303 303 303 303 302 302 302 302 302 301 300 298 297 296 293 290 288 284 281 278 274 271 268 264 262 259 256 251 247 249 246 242 242 246 248 232 217 210 200 196 194 194 196 196 195 195 195 197 195 196 199 202 214 216 218 237 228 195 175 169 168 164 161 160 160 154 152 152 144 131 126 132 135 144 159 152 152 152 153 157 158 159 160 161 164 165 167
303 303 303 303 303 302 302 302 301 301 300 299 298 297 296 295 292 289 286 283 278 273 269 264 260 258 256 252 244 243 248 246 244 243 241 243 233 217 209 201 197 194 193 195 198 197 197 197 196 197 200 203 207 214 222 231 234 199 165 153 165 162 160 161 158 160 153 155 160 142 119 125 136 144 160 160 156 156 155 156 160 162 164 165 166 169 171 174
304 303 302 302 302 302 302 302 301 300 299 298 297 296 296 295 293 291 288 285 280 273 267 261 257 254 254 251 243 245 249 247 246 246 241 238 231 217 209 204 199 196 194 195 199 201 200 199 197 201 205 203 205 213 230 232 206 184 165 159 172 161 163 169 162 164 158 157 157 137 116 146 167 157 147 156 157 156 157 160 164 166 168 169 170 173 176 180
305 304 303 302 302 302 302 302 302 301 299 298 296 296 295 294 293 292 289 286 280 275 267 259 254 253 252 248 246 249 251 248 247 245 238 231 225 216 209 207 203 200 198 197 201 203 204 204 202 206 206 201 206 215 226 216 188 184 177 173 172 163 176 184 172 167 160 161 159 144 140 185 187 151 145 156 158 155 158 164 168 170 172 174 176 177 181 183
305 304 304 303 303 302 302 302 302 301 300 298 297 295 294 293 292 291 289 286 281 275 266 258 253 251 248 247 249 251 248 244 241 239 235 225 219 215 211 208 205 204 203 202 204 205 206 204 203 206 206 202 206 215 221 209 191 184 181 184 181 173 183 189 179 170 162 173 171 152 163 190 188 164 153 159 162 160 163 169 172 173 176 179 181 183 186 187
304 304 303 303 303 303 303 302 302 301 300 299 297 295 294 292 291 289 288 284 280 274 266 260 254 250 249 250 250 246 240 237 235 235 231 221 215 214 212 209 207 206 205 205 206 206 205 202 202 203 205 205 202 205 211 202 196 190 182 185 191 183 181 188 188 178 168 180 186 173 178 191 189 170 160 159 164 165 168 173 175 176 178 181 185 188 190 191
303 303 303 303 303 303 303 303 302 301 300 298 297 295 293 291 288 287 285 281 277 273 269 263 256 250 249 249 246 239 235 232 232 233 228 221 217 214 211 208 208 206 205 207 208 208 206 204 205 203 202 203 197 195 199 192 193 198 189 184 189 184 179 185 188 186 177 180 192 189 179 187 167 165 164 163 166 168 170 176 179 180 182 183 186 189 192 193
301 301 302 302 303 303 302 302 302 302 300 298 296 294 292 290 286 284 281 278 275 272 272 267 259 253 249 248 244 238 233 231 234 237 231 224 219 215 212 210 210 208 206 207 208 208 208 206 206 206 205 202 199 196 192 190 190 193 191 187 191 189 183 182 180 185 184 186 197 188 179 195 171 159 166 171 171 172 175 179 182 185 187 187 188 191 193 195
299 300 300 301 302 302 302 302 302 301 300 298 296 293 290 287 283 281 278 276 276 273 272 268 261 255 248 245 241 237 235 235 239 238 231 223 218 216 215 214 212 208 207 208 209 208 208 209 207 206 207 203 201 198 194 195 192 189 190 189 191 192 189 186 182 184 183 190 200 190 187 197 177 165 173 178 177 179 182 182 183 187 191 193 193 195 195 197
298 298 298 299 300 301 301 301 301 301 300 297 296 292 287 284 281 279 276 276 276 272 270 264 257 255 250 246 245 242 239 239 238 233 226 221 216 216 216 215 211 208 207 209 211 209 207 209 207 205 206 203 201 200 200 199 195 192 190 186 186 191 195 193 190 186 181 189 199 196 196 193 183 182 182 183 183 186 189 186 186 190 194 197 197 200 200 202
298 297 297 297 298 299 299 300 300 300 299 295 295 292 288 287 283 279 280 279 274 270 268 264 259 259 256 252 249 246 242 238 232 227 223 220 216 215 216 214 211 210 209 209 211 210 208 209 210 207 205 203 201 202 200 195 193 192 191 189 189 195 204 204 205 200 187 191 203 202 204 202 195 197 195 188 187 193 199 195 195 195 198 201 201 202 205 208
297 297 296 296 297 297 297 298 298 299 296 292 293 290 284 287 284 282 285 281 273 269 268 265 260 259 257 252 246 243 240 236 231 226 224 222 217 215 217 213 210 213 214 211 211 210 209 211 212 209 206 203 202 203 199 192 191 193 194 196 199 204 211 211 211 210 198 200 211 208 209 216 213 210 208 196 195 206 207 203 202 201 203 206 206 207 208 211
297 296 296 296 296 296 296 296 296 295 291 290 291 285 280 284 285 285 285 281 274 269 268 265 260 259 257 252 246 239 235 233 233 230 224 221 218 216 216 213 210 214 215 211 209 210 212 215 213 209 206 203 203 203 199 197 196 196 197 198 206 212 215 216 213 210 209 214 221 217 215 228 232 224 221 212 212 218 212 209 210 206 207 211 211 211 210 212
297 296 296 295 295 295 294 295 294 290 286 289 289 281 278 283 288 289 285 282 279 272 267 263 259 258 256 252 245 236 230 227 229 229 223 218 217 215 213 213 212 213 214 212 209 208 212 216 212 207 205 202 204 205 201 202 204 203 200 199 207 213 213 218 218 213 216 222 222 218 224 238 237 230 233 228 226 228 221 219 218 213 213 215 216 216 214 213
297 296 295 295 295 294 293 293 288 283 285 289 283 275 278 285 290 291 286 283 283 276 269 263 258 256 254 250 241 231 229 226 224 227 224 217 216 216 215 214 212 213 215 213 210 210 215 217 209 204 206 205 205 207 204 205 210 212 208 204 207 212 212 215 217 218 225 233 228 219 234 246 235 228 235 235 234 236 228 224 224 221 219 219 220 220 218 217
297 296 295 296 295 294 293 289 281 280 287 286 275 271 280 286 289 289 285 285 285 282 276 267 260 256 252 247 238 231 231 229 225 225 223 218 216 217 218 216 214 215 215 212 210 213 217 217 207 204 208 207 206 209 208 207 211 216 216 210 207 209 211 209 208 214 224 233 234 225 233 248 242 234 236 236 234 236 232 227 226 224 222 221 221 221 221 221
298 296 296 295 294 295 291 281 276 283 286 278 270 274 281 286 287 283 281 286 286 285 281 271 261 256 252 245 236 231 233 233 227 223 222 219 216 217 218 218 217 216 214 212 214 216 216 213 209 208 209 209 210 212 212 209 208 217 219 213 209 208 208 206 206 211 220 230 234 228 230 247 253 243 237 235 235 237 236 234 229 225 223 221 219 220 222 222
297 296 296 294 294 294 287 277 279 282 278 270 271 277 281 284 282 278 280 286 285 282 279 273 264 257 254 245 232 227 233 235 226 221 220 218 217 217 218 219 218 216 214 213 217 218 213 210 210 210 209 211 212 213 214 209 207 218 218 210 208 209 211 211 211 218 226 232 237 232 232 246 256 249 239 233 236 239 238 236 233 229 226 223 221 222 223 223
295 295 294 293 292 290 281 276 279 276 271 269 272 275 279 280 276 273 278 278 278 281 277 272 267 262 258 245 231 229 234 231 225 223 218 215 216 217 218 218 215 216 216 214 218 220 214 211 211 210 211 214 215 214 212 208 212 221 216 210 211 213 216 217 219 228 231 229 233 234 232 241 251 252 246 232 233 240 238 235 235 231 228 225 224 223 224 225
294 293 292 291 289 285 278 274 273 271 271 271 271 273 276 274 268 271 273 269 275 280 273 273 273 268 262 246 236 237 237 231 226 223 216 213 217 217 218 218 214 215 218 217 219 221 217 214 212 211 213 216 216 215 211 209 216 219 211 212 219 221 223 224 226 229 228 225 229 231 230 237 248 249 245 235 235 241 239 237 236 233 230 227 226 225 225 226
292 291 290 289 286 281 276 272 269 269 270 269 269 271 271 264 260 265 265 265 274 276 272 276 274 268 263 250 244 243 238 232 228 221 216 214 216 218 218 217 214 216 221 221 220 221 221 217 214 214 215 215 215 216 213 212 215 213 210 214 222 228 229 232 233 228 226 231 234 231 228 233 247 248 241 237 238 237 237 239 239 236 232 229 228 227 225 225
291 289 288 286 281 277 274 271 269 268 266 266 267 267 262 257 255 257 259 265 274 275 273 272 267 265 264 254 248 244 236 231 226 219 218 215 214 217 217 216 216 216 220 223 223 224 223 219 217 218 217 213 212 215 217 217 215 213 215 217 221 230 231 233 235 228 228 238 240 236 231 233 242 246 242 241 242 239 236 238 238 234 231 229 229 228 227 226
291 288 286 282 277 272 268 268 268 266 264 265 266 261 252 252 253 251 257 270 273 269 266 264 263 264 265 259 250 242 234 228 223 217 215 215 216 218 217 217 216 216 220 222 223 225 224 221 219 220 219 214 211 214 218 220 218 214 217 216 218 227 229 231 234 232 234 241 242 234 229 234 242 245 246 245 247 245 238 236 235 230 228 228 229 230 230 228
290 288 285 280 274 268 265 266 265 264 265 263 261 256 247 250 253 248 250 258 260 263 262 260 264 264 264 266 256 244 236 230 224 219 217 217 219 221 220 220 217 216 221 222 222 224 225 225 222 219 220 217 212 214 217 219 217 215 216 216 217 221 225 232 238 240 241 244 246 235 228 237 245 248 246 242 243 242 237 235 235 233 229 229 231 231 231 230
290 287 283 278 273 268 265 264 261 259 259 256 254 252 246 248 253 250 248 250 255 263 261 261 271 272 265 261 256 249 240 234 226 219 220 220 222 223 222 222 219 217 220 221 222 222 223 225 221 218 220 217 215 216 216 217 218 219 220 219 221 222 224 231 235 236 238 242 243 234 231 235 237 246 248 241 241 239 237 239 240 242 238 233 235 236 234 232
288 285 280 276 271 266 262 259 257 254 251 249 249 248 244 246 251 250 249 250 254 260 261 264 270 271 266 258 256 251 240 237 230 221 221 221 223 223 221 220 220 218 219 221 224 223 224 227 224 222 221 217 217 219 216 216 220 223 222 222 225 226 227 234 236 234 235 239 239 233 237 241 243 255 259 249 248 243 240 242 240 241 239 233 235 237 236 234
286 282 278 274 269 266 261 256 254 251 246 245 247 247 246 248 248 247 249 249 250 253 259 265 263 260 260 256 253 249 242 239 233 226 225 224 225 225 223 222 221 219 219 221 224 224 225 229 227 224 223 220 218 218 217 218 221 223 223 225 228 227 228 234 239 240 237 240 242 236 240 249 252 259 257 247 251 251 245 241 236 235 233 228 230 233 233 232
284 282 277 271 268 266 261 255 251 247 244 244 246 247 249 249 247 245 248 248 248 249 251 256 254 250 250 250 247 245 244 243 235 230 229 228 228 226 226 227 223 220 221 222 226 226 225 230 230 224 224 224 219 218 221 222 220 223 225 226 227 229 231 233 236 242 240 242 247 240 238 243 244 252 256 247 247 250 247 241 237 234 230 228 230 230 229 228
281 278 272 269 269 266 260 253 248 244 243 245 248 249 250 249 247 246 246 246 247 247 245 246 248 248 247 246 246 245 246 246 241 237 233 230 230 227 225 228 226 223 223 222 227 228 225 229 232 224 224 224 219 219 224 224 222 225 227 225 224 226 230 231 232 236 238 241 249 247 244 243 240 246 254 247 243 246 248 246 241 235 231 229 229 227 225 224
279 273 268 268 269 264 256 250 245 242 244 246 247 249 249 248 248 245 244 244 243 243 244 244 245 248 247 244 245 246 246 244 242 240 235 231 231 228 224 227 229 225 222 222 225 227 225 227 229 226 223 222 219 219 222 222 223 225 226 226 226 226 227 230 232 233 235 239 245 248 248 245 242 244 246 244 241 242 245 246 244 238 233 230 226 223 221 220
276 269 265 265 265 260 252 247 245 244 246 247 246 248 249 248 247 245 242 242 242 242 243 243 244 247 248 247 246 245 243 241 239 237 235 231 231 232 226 226 230 228 224 222 224 226 226 226 227 226 224 222 220 221 221 219 220 222 224 224 226 226 227 232 234 233 233 238 241 244 248 247 246 245 243 241 240 240 242 245 247 246 240 235 229 223 220 219
273 266 263 262 259 259 256 251 249 247 248 249 247 248 248 247 246 245 243 241 240 242 242 242 243 244 246 246 244 243 243 242 239 236 236 232 231 233 229 225 227 227 225 225 225 225 225 225 225 224 223 223 224 224 222 219 219 221 224 225 224 225 226 231 236 236 235 238 239 241 247 250 250 247 242 241 243 246 248 248 252 253 246 239 233 226 222 221
269 264 264 261 257 260 259 254 251 249 248 248 247 246 246 245 243 243 243 240 239 241 241 241 242 242 243 243 241 241 241 241 238 235 236 234 230 229 229 227 226 225 226 227 227 224 224 225 226 225 225 225 226 224 221 219 219 222 226 227 225 226 226 228 233 236 236 239 241 242 248 252 252 247 243 244 247 251 255 256 257 256 248 239 234 229 224 223
266 265 266 260 256 258 258 253 251 250 248 248 248 246 244 243 241 240 240 240 238 238 239 239 239 239 240 239 237 237 237 237 237 234 234 235 230 227 230 232 230 227 227 230 229 225 224 224 224 226 229 229 229 227 223 219 218 221 226 226 224 226 227 229 233 235 236 237 238 243 249 251 252 251 249 249 249 254 259 257 254 252 248 240 234 230 227 225
267 265 264 259 256 255 253 251 250 249 248 248 247 245 243 242 240 238 238 239 238 238 239 240 238 238 238 236 235 236 234 235 236 233 232 232 229 229 231 233 233 231 229 229 226 223 224 224 222 222 225 226 226 226 224 222 220 222 225 224 223 224 225 230 234 235 237 238 234 237 245 248 253 257 255 250 248 254 260 256 249 248 246 240 234 233 229 225
267 262 259 258 255 251 249 249 248 248 248 247 246 244 241 240 239 237 236 237 238 236 238 239 238 237 237 235 236 236 233 232 234 235 232 230 231 231 230 233 235 234 234 229 222 220 224 225 222 219 220 221 221 221 221 221 222 225 226 224 224 223 221 226 231 232 237 239 235 235 242 248 254 258 256 250 246 251 257 250 244 244 243 238 234 232 229 226
265 260 258 259 256 250 248 249 248 247 247 246 245 242 239 238 239 236 235 236 236 234 234 237 236 236 236 234 235 236 235 233 233 235 235 232 231 229 230 238 238 236 240 232 219 219 226 227 224 222 222 223 223 223 222 220 221 224 226 225 225 223 221 224 228 230 234 236 237 239 241 245 250 252 252 250 246 249 251 246 243 243 240 235 233 231 229 227
261 259 257 257 256 252 248 248 247 246 246 245 244 242 239 238 238 236 234 234 234 233 233 235 233 233 233 232 233 235 234 234 234 234 234 233 231 230 232 238 235 237 248 234 217 218 225 227 227 226 225 226 225 225 223 221 222 223 224 225 224 224 223 224 229 232 232 233 240 243 241 241 246 248 248 247 246 248 249 245 243 240 235 233 233 231 228 227
259 258 257 255 253 250 247 248 249 247 245 244 242 240 239 236 235 235 234 235 235 232 232 236 233 231 231 230 232 233 233 234 235 233 231 230 231 231 232 234 232 235 249 239 222 219 224 228 228 227 229 229 228 226 223 222 225 225 224 224 222 221 222 225 231 233 230 233 240 241 238 240 246 247 245 243 243 242 241 239 237 235 234 234 233 229 228 228
258 257 256 254 252 251 250 250 250 247 244 243 241 238 237 236 234 235 235 236 237 232 231 235 235 233 233 231 232 233 231 233 235 233 229 228 229 228 227 230 230 231 241 240 228 222 223 229 229 226 230 232 229 228 225 223 227 228 226 226 224 223 224 227 233 234 233 238 242 240 238 240 244 244 243 243 242 240 239 239 235 233 233 233 231 229 230 231
258 256 255 254 252 252 251 249 247 246 243 242 239 237 237 235 234 237 237 234 234 233 231 234 236 235 234 232 232 233 232 232 234 232 228 227 227 226 224 225 225 231 237 231 226 226 226 230 230 226 231 233 230 228 227 225 227 229 229 229 227 227 229 231 235 235 235 241 243 240 239 242 244 243 243 243 242 239 240 239 235 233 233 233 232 233 233 233
258 255 254 254 252 251 250 248 246 245 242 240 238 237 237 235 234 239 238 232 230 231 232 235 237 235 233 232 232 233 235 236 236 235 232 230 228 225 223 222 222 230 238 228 225 230 228 229 232 230 233 235 230 227 227 226 227 231 231 230 228 228 229 232 234 233 234 238 241 240 240 242 243 242 242 241 239 238 239 238 236 236 236 233 233 235 236 234
259 255 253 252 251 249 249 248 246 244 241 239 238 238 235 235 237 238 236 232 231 230 231 236 237 233 232 232 232 235 240 241 239 238 236 235 233 228 223 221 221 226 233 231 228 230 227 228 234 233 235 237 232 226 226 225 227 231 230 227 227 228 229 232 234 234 234 235 237 239 241 242 240 238 238 240 239 241 242 240 238 238 237 235 236 237 236 231